Location: *
(51.1248°S, 108.4023°W)
Time: 04:08:03
(UTC+00:00)

Cosmos 2227 Rocket - Pass Details

Date: 15 June 2021
Orbit: 838 x 846 km, 71.0° (Epoch: 31 July)

Event Time Altitude Azimuth Distance (km) Brightness Sun altitude
Exits shadow 13:28:44 11° 205° (SSW) 2,399 4.2 -15.8°
Maximum altitude 13:34:10 64° 124° (SE) 949 2.6 -15.0°
Drops below altitude 10° 13:39:49 10° 42° (NE) 2,472 5.6 -14.1°
Sets 13:42:17 0° 39° (NE) 3,399 6.4 -13.8°
